Weather History for Cortez, CO

Change the Weather History Date:

Wednesday, November 21, 2012

  Actual Average Record
Temperature  
Mean Temperature 40 °F 35 °F  
Max Temperature 61 °F 49 °F 63 °F (2006)
Min Temperature 19 °F 20 °F 14 °F (2001)
Degree Days  
Heating Degree Days 25 30  
Month to date heating degree days 503 554  
Since 1 July heating degree days 1059 1236  
Cooling Degree Days 0 0  
Month to date cooling degree days 0 0  
Year to date cooling degree days 746 426  
Moisture  
Dew Point 16 °F    
Average Humidity 45    
Maximum Humidity 73    
Minimum Humidity 17    
Precipitation  
Precipitation 0.00 in 0.05 in 0.20 in (2013)
Month to date precipitation 0.46 0.95  
Year to date precipitation 6.58 12.37  
Sea Level Pressure  
Sea Level Pressure 30.18 in    
Wind  
Wind Speed 5 mph (SE)    
Max Wind Speed 16 mph    
Max Gust Speed 18 mph    
Visibility 10 miles    
Events      
T = Trace of Precipitation, MM = Missing Value Source: NWS Daily Summary

Daily Weather History Graph

Daily Weather History Graph

Search for Another Location

Airport:

Trip Planner

Search our weather history database for the weather conditions in past years. The results will help you decide how hot, cold, wet, or windy it might be!

Date:

Astronomy

Nov. 21, 2012 Rise Set
Actual Time 7:00 AM MST 5:00 PM MST
Civil Twilight 6:32 AM MST 5:28 PM MST
Nautical Twilight 6:00 AM MST 6:00 PM MST
Astronomical Twilight 5:29 AM MST 6:31 PM MST
Moon 1:11 PM MST (11/21) 12:30 AM MST (11/21)
Length of Visible Light 10h 56m
Length of Day
9h 59m
Waxing Gibbous, 62% of the Moon is Illuminated
Nov 21
Waxing Gibbous
Nov 28
Full
Dec 6
Last Quarter
Dec 13
New
Dec 19
First Quarter

Hourly Weather History & Observations

Time (MST) Temp. Windchill Dew Point Humidity Pressure Visibility Wind Dir Wind Speed Gust Speed Precip Events Conditions
12:53 AM 21.9 °F - 14.0 °F 72% 30.21 in 10.0 mi Calm Calm - N/A   Clear
1:53 AM 21.9 °F - 14.0 °F 72% 30.21 in 10.0 mi Calm Calm - N/A   Clear
2:53 AM 21.9 °F - 14.0 °F 72% 30.21 in 10.0 mi Calm Calm - N/A   Clear
3:53 AM 21.9 °F 14.5 °F 14.0 °F 72% 30.20 in 10.0 mi East 5.8 mph - N/A   Clear
4:53 AM 21.0 °F 16.2 °F 12.9 °F 71% 30.22 in 10.0 mi ENE 3.5 mph - N/A   Clear
5:53 AM 21.0 °F - 14.0 °F 74% 30.26 in 10.0 mi Calm Calm - N/A   Clear
6:53 AM 19.0 °F 11.1 °F 12.0 °F 74% 30.30 in 10.0 mi NE 5.8 mph - N/A   Clear
7:53 AM 27.0 °F - 16.0 °F 63% 30.29 in 10.0 mi Calm Calm - N/A   Clear
9:53 AM 48.9 °F - 19.0 °F 31% 30.22 in 10.0 mi Calm Calm - N/A   Clear
10:53 AM 53.1 °F - 16.0 °F 23% 30.20 in 10.0 mi SSW 4.6 mph - N/A   Clear
11:53 AM 55.0 °F - 17.1 °F 23% 30.17 in 10.0 mi SSW 9.2 mph - N/A   Clear
12:53 PM 59.0 °F - 19.0 °F 21% 30.12 in 10.0 mi SSW 12.7 mph - N/A   Clear
1:53 PM 60.1 °F - 17.1 °F 19% 30.10 in 10.0 mi SSW 15.0 mph - N/A   Clear
2:53 PM 60.1 °F - 15.1 °F 17% 30.08 in 10.0 mi SW 11.5 mph - N/A   Clear
3:53 PM 59.0 °F - 15.1 °F 18% 30.08 in 10.0 mi WSW 6.9 mph - N/A   Clear
4:53 PM 52.0 °F - 17.1 °F 25% 30.11 in 10.0 mi West 5.8 mph - N/A   Clear
5:53 PM 37.0 °F 32.4 °F 19.0 °F 48% 30.17 in 10.0 mi South 5.8 mph - N/A   Clear
6:53 PM 36.0 °F 33.3 °F 18.0 °F 48% 30.19 in 10.0 mi NE 3.5 mph - N/A   Clear
7:53 PM 33.1 °F 26.1 °F 17.1 °F 52% 30.19 in 10.0 mi NE 8.1 mph - N/A   Clear
8:53 PM 30.0 °F - 16.0 °F 56% 30.17 in 10.0 mi Calm Calm - N/A   Clear
9:53 PM 28.9 °F 22.8 °F 16.0 °F 58% 30.13 in 10.0 mi East 5.8 mph - N/A   Clear
10:53 PM 27.0 °F 23.0 °F 15.1 °F 61% 30.12 in 10.0 mi ENE 3.5 mph - N/A   Clear
11:53 PM 24.1 °F - 15.1 °F 69% 30.12 in 10.0 mi Calm Calm - N/A   Clear